Time,TemperatureF,DewpointF,PressureIn,WindDirection,WindDirectionDegrees,WindSpeedMPH,WindSpeedGustMPH,Humidity,HourlyPrecipIn,Conditions,Clouds,dailyrainin,SoftwareType,DateUTC
2013-05-29 00:01:00,53.0,42.0,29.82,WNW,292,7.0,13.0,65,0.00,,,0.00,,2013-05-29 06:01:00,
2013-05-29 00:11:00,53.0,42.0,29.82,WNW,292,7.0,13.0,65,0.00,,,0.00,,2013-05-29 06:11:00,
2013-05-29 00:21:00,51.0,42.0,29.81,NW,315,4.0,7.0,71,0.00,,,0.00,,2013-05-29 06:21:00,
2013-05-29 00:31:00,50.0,42.0,29.81,NW,315,5.0,9.0,73,0.00,,,0.00,,2013-05-29 06:31:00,
2013-05-29 00:41:00,50.0,42.0,29.81,NW,315,5.0,9.0,73,0.00,,,0.00,,2013-05-29 06:41:00,
2013-05-29 00:51:00,50.0,41.0,29.81,NNW,337,6.0,11.0,72,0.00,,,0.00,,2013-05-29 06:51:00,
2013-05-29 01:01:00,52.0,40.0,29.81,NW,315,5.0,6.0,63,0.00,,,0.00,,2013-05-29 07:01:00,
2013-05-29 01:11:00,50.0,41.0,29.80,NE,45,5.0,6.0,70,0.00,,,0.00,,2013-05-29 07:11:00,
2013-05-29 01:21:00,50.0,41.0,29.80,NE,45,5.0,6.0,70,0.00,,,0.00,,2013-05-29 07:21:00,
2013-05-29 01:31:00,49.0,42.0,29.78,East,90,4.0,6.0,78,0.00,,,0.00,,2013-05-29 07:31:00,
2013-05-29 01:41:00,49.0,42.0,29.78,East,90,4.0,6.0,78,0.00,,,0.00,,2013-05-29 07:41:00,
2013-05-29 01:52:00,47.0,43.0,29.78,NE,45,5.0,6.0,85,0.00,,,0.00,,2013-05-29 07:52:00,
2013-05-29 02:02:00,47.0,44.0,29.76,South,180,2.0,4.0,89,0.00,,,0.00,,2013-05-29 08:02:00,
2013-05-29 02:11:00,47.0,44.0,29.76,South,180,2.0,4.0,89,0.00,,,0.00,,2013-05-29 08:11:00,
2013-05-29 02:21:00,48.0,45.0,29.76,SSE,157,8.0,12.0,88,0.00,,,0.00,,2013-05-29 08:21:00,
2013-05-29 02:31:00,48.0,43.0,29.75,SE,135,7.0,13.0,83,0.00,,,0.00,,2013-05-29 08:31:00,
2013-05-29 02:41:00,48.0,43.0,29.75,SE,135,7.0,13.0,83,0.00,,,0.00,,2013-05-29 08:41:00,
2013-05-29 02:51:00,48.0,43.0,29.76,ESE,112,1.0,3.0,83,0.00,,,0.00,,2013-05-29 08:51:00,
2013-05-29 03:01:00,48.0,44.0,29.77,South,180,4.0,6.0,85,0.00,,,0.00,,2013-05-29 09:01:00,
2013-05-29 03:11:00,48.0,44.0,29.77,South,180,4.0,6.0,85,0.00,,,0.00,,2013-05-29 09:11:00,
2013-05-29 03:21:00,48.0,43.0,29.77,South,180,1.0,2.0,84,0.00,,,0.00,,2013-05-29 09:21:00,
2013-05-29 03:32:00,49.0,43.0,29.76,ENE,67,1.0,2.0,80,0.00,,,0.00,,2013-05-29 09:32:00,
2013-05-29 03:42:00,49.0,43.0,29.76,ENE,67,1.0,2.0,80,0.00,,,0.00,,2013-05-29 09:42:00,
2013-05-29 03:52:00,49.0,43.0,29.76,East,90,0.0,0.0,79,0.00,,,0.00,,2013-05-29 09:52:00,
2013-05-29 04:02:00,48.0,43.0,29.75,East,90,2.0,2.0,83,0.00,,,0.00,,2013-05-29 10:02:00,
2013-05-29 04:12:00,47.0,44.0,29.75,East,90,1.0,2.0,88,0.00,,,0.00,,2013-05-29 10:12:00,
2013-05-29 04:22:00,47.0,44.0,29.75,East,90,1.0,2.0,88,0.00,,,0.00,,2013-05-29 10:22:00,
2013-05-29 04:32:00,46.0,43.0,29.74,NNE,22,2.0,2.0,90,0.00,,,0.00,,2013-05-29 10:32:00,
2013-05-29 04:42:00,46.0,43.0,29.74,NNE,22,2.0,2.0,90,0.00,,,0.00,,2013-05-29 10:42:00,
2013-05-29 04:52:00,44.0,42.0,29.74,North,360,0.0,0.0,93,0.00,,,0.00,,2013-05-29 10:52:00,
2013-05-29 05:02:00,43.0,42.0,29.72,North,360,0.0,0.0,96,0.00,,,0.00,,2013-05-29 11:02:00,
2013-05-29 05:11:00,42.0,41.0,29.72,North,360,1.0,1.0,96,0.00,,,0.00,,2013-05-29 11:11:00,
2013-05-29 05:21:00,42.0,41.0,29.72,North,360,1.0,1.0,96,0.00,,,0.00,,2013-05-29 11:21:00,
2013-05-29 05:32:00,42.0,41.0,29.72,South,180,2.0,2.0,96,0.00,,,0.00,,2013-05-29 11:32:00,
2013-05-29 05:41:00,42.0,41.0,29.72,South,180,2.0,2.0,96,0.00,,,0.00,,2013-05-29 11:41:00,
2013-05-29 05:51:00,42.0,41.0,29.72,South,180,2.0,4.0,96,0.00,,,0.00,,2013-05-29 11:51:00,
2013-05-29 06:01:00,42.0,41.0,29.72,South,180,2.0,2.0,96,0.00,,,0.00,,2013-05-29 12:01:00,
2013-05-29 06:11:00,42.0,41.0,29.72,South,180,2.0,2.0,96,0.00,,,0.00,,2013-05-29 12:11:00,
2013-05-29 06:21:00,44.0,43.0,29.72,SSE,157,2.0,3.0,96,0.00,,,0.00,,2013-05-29 12:21:00,
2013-05-29 06:31:00,44.0,43.0,29.72,South,180,2.0,2.0,96,0.00,,,0.00,,2013-05-29 12:31:00,
2013-05-29 06:41:00,44.0,43.0,29.72,South,180,2.0,2.0,96,0.00,,,0.00,,2013-05-29 12:41:00,
2013-05-29 06:51:00,44.0,43.0,29.74,NE,45,3.0,4.0,95,0.00,,,0.00,,2013-05-29 12:51:00,
2013-05-29 07:01:00,46.0,45.0,29.76,East,90,3.0,4.0,95,0.00,,,0.00,,2013-05-29 13:01:00,
2013-05-29 07:11:00,46.0,45.0,29.76,East,90,3.0,4.0,95,0.00,,,0.00,,2013-05-29 13:11:00,
2013-05-29 07:21:00,47.0,45.0,29.77,ESE,112,2.0,4.0,91,0.00,,,0.00,,2013-05-29 13:21:00,
2013-05-29 07:31:00,49.0,44.0,29.79,South,180,0.0,0.0,84,0.00,,,0.00,,2013-05-29 13:31:00,
2013-05-29 07:42:00,49.0,44.0,29.79,South,180,0.0,0.0,84,0.00,,,0.00,,2013-05-29 13:42:00,
2013-05-29 07:52:00,50.0,44.0,29.80,SW,225,0.0,1.0,80,0.00,,,0.00,,2013-05-29 13:52:00,
2013-05-29 08:01:00,52.0,45.0,29.81,NNW,337,1.0,2.0,77,0.00,,,0.00,,2013-05-29 14:01:00,
2013-05-29 08:11:00,52.0,45.0,29.81,NNW,337,1.0,2.0,77,0.00,,,0.00,,2013-05-29 14:11:00,
2013-05-29 08:21:00,51.0,44.0,29.80,NNW,337,0.0,1.0,76,0.00,,,0.00,,2013-05-29 14:21:00,
2013-05-29 08:31:00,51.0,44.0,29.80,NNW,337,0.0,0.0,77,0.00,,,0.00,,2013-05-29 14:31:00,
2013-05-29 08:41:00,51.0,44.0,29.80,NNW,337,0.0,0.0,77,0.00,,,0.00,,2013-05-29 14:41:00,
2013-05-29 08:51:00,55.0,42.0,29.83,West,270,1.0,2.0,62,0.00,,,0.00,,2013-05-29 14:51:00,
2013-05-29 09:01:00,56.0,41.0,29.84,NW,315,3.0,5.0,58,0.00,,,0.00,,2013-05-29 15:01:00,
2013-05-29 09:11:00,56.0,41.0,29.84,NNW,337,3.0,6.0,58,0.00,,,0.00,,2013-05-29 15:11:00,
2013-05-29 09:21:00,56.0,41.0,29.84,NNW,337,3.0,6.0,58,0.00,,,0.00,,2013-05-29 15:21:00,
2013-05-29 09:32:00,56.0,38.0,29.85,NNW,337,5.0,11.0,51,0.00,,,0.00,,2013-05-29 15:32:00,
2013-05-29 09:42:00,56.0,38.0,29.85,NNW,337,5.0,11.0,51,0.00,,,0.00,,2013-05-29 15:42:00,
2013-05-29 09:52:00,56.0,41.0,29.84,North,360,7.0,10.0,56,0.00,,,0.00,,2013-05-29 15:52:00,
2013-05-29 10:03:00,57.0,41.0,29.84,North,360,7.0,12.0,56,0.00,,,0.00,,2013-05-29 16:03:00,
2013-05-29 10:12:00,57.0,41.0,29.84,North,360,7.0,12.0,56,0.00,,,0.00,,2013-05-29 16:12:00,
2013-05-29 10:22:00,57.0,41.0,29.84,NNE,22,5.0,7.0,56,0.00,,,0.00,,2013-05-29 16:22:00,
2013-05-29 10:32:00,58.0,40.0,29.84,North,360,3.0,6.0,52,0.00,,,0.00,,2013-05-29 16:32:00,
2013-05-29 10:42:00,58.0,40.0,29.84,North,360,3.0,6.0,52,0.00,,,0.00,,2013-05-29 16:42:00,
2013-05-29 10:52:00,56.0,41.0,29.83,North,360,3.0,6.0,57,0.00,,,0.00,,2013-05-29 16:52:00,
2013-05-29 11:02:00,56.0,40.0,29.83,North,360,6.0,11.0,54,0.00,,,0.00,,2013-05-29 17:02:00,
2013-05-29 11:11:00,59.0,42.0,29.84,North,360,4.0,7.0,53,0.00,,,0.00,,2013-05-29 17:11:00,
2013-05-29 11:21:00,59.0,42.0,29.84,North,360,4.0,7.0,53,0.00,,,0.00,,2013-05-29 17:21:00,
2013-05-29 11:32:00,57.0,41.0,29.83,NE,45,5.0,7.0,54,0.00,,,0.00,,2013-05-29 17:32:00,
2013-05-29 11:42:00,57.0,41.0,29.83,NE,45,5.0,7.0,54,0.00,,,0.00,,2013-05-29 17:42:00,
2013-05-29 11:52:00,59.0,40.0,29.83,North,360,6.0,9.0,50,0.00,,,0.00,,2013-05-29 17:52:00,
2013-05-29 12:01:00,60.0,40.0,29.83,NE,45,2.0,2.0,47,0.00,,,0.00,,2013-05-29 18:01:00,
2013-05-29 12:13:00,61.0,42.0,29.84,North,360,2.0,4.0,50,0.00,,,0.00,,2013-05-29 18:13:00,
2013-05-29 12:21:00,61.0,42.0,29.84,North,360,2.0,4.0,50,0.00,,,0.00,,2013-05-29 18:21:00,
2013-05-29 12:32:00,59.0,40.0,29.84,NNW,337,1.0,2.0,50,0.00,,,0.00,,2013-05-29 18:32:00,
2013-05-29 12:41:00,59.0,40.0,29.84,NNW,337,1.0,2.0,50,0.00,,,0.00,,2013-05-29 18:41:00,
2013-05-29 12:51:00,60.0,39.0,29.83,NW,315,1.0,3.0,46,0.00,,,0.00,,2013-05-29 18:51:00,
2013-05-29 13:01:00,60.0,37.0,29.83,NW,315,5.0,9.0,42,0.00,,,0.00,,2013-05-29 19:01:00,
2013-05-29 13:11:00,61.0,38.0,29.82,North,360,4.0,7.0,43,0.00,,,0.00,,2013-05-29 19:11:00,
2013-05-29 13:21:00,61.0,38.0,29.82,North,360,4.0,7.0,43,0.00,,,0.00,,2013-05-29 19:21:00,
2013-05-29 13:32:00,61.0,40.0,29.82,NE,45,6.0,11.0,46,0.00,,,0.00,,2013-05-29 19:32:00,
2013-05-29 13:44:00,61.0,37.0,29.82,NE,45,2.0,3.0,41,0.00,,,0.00,,2013-05-29 19:44:00,
2013-05-29 13:52:00,61.0,37.0,29.82,NE,45,2.0,3.0,41,0.00,,,0.00,,2013-05-29 19:52:00,
2013-05-29 14:02:00,61.0,36.0,29.82,NW,315,2.0,4.0,40,0.00,,,0.00,,2013-05-29 20:02:00,
2013-05-29 14:11:00,60.0,39.0,29.81,North,360,3.0,5.0,45,0.00,,,0.00,,2013-05-29 20:11:00,
2013-05-29 14:22:00,60.0,39.0,29.81,North,360,3.0,5.0,45,0.00,,,0.00,,2013-05-29 20:22:00,
2013-05-29 14:32:00,60.0,37.0,29.80,North,360,6.0,9.0,43,0.00,,,0.00,,2013-05-29 20:32:00,
2013-05-29 14:41:00,60.0,37.0,29.80,North,360,6.0,9.0,43,0.00,,,0.00,,2013-05-29 20:41:00,
2013-05-29 14:52:00,62.0,38.0,29.81,NW,315,4.0,9.0,41,0.00,,,0.00,,2013-05-29 20:52:00,
2013-05-29 15:02:00,62.0,38.0,29.81,North,360,6.0,9.0,41,0.00,,,0.00,,2013-05-29 21:02:00,
2013-05-29 15:12:00,62.0,38.0,29.81,North,360,6.0,9.0,41,0.00,,,0.00,,2013-05-29 21:12:00,
2013-05-29 15:22:00,61.0,38.0,29.80,NE,45,5.0,7.0,43,0.00,,,0.00,,2013-05-29 21:22:00,
2013-05-29 15:33:00,63.0,39.0,29.80,ESE,112,1.0,2.0,41,0.00,,,0.00,,2013-05-29 21:33:00,
2013-05-29 15:43:00,65.0,35.0,29.81,SE,135,2.0,3.0,33,0.00,,,0.00,,2013-05-29 21:43:00,
2013-05-29 15:53:00,65.0,35.0,29.81,SE,135,2.0,3.0,33,0.00,,,0.00,,2013-05-29 21:53:00,
2013-05-29 16:03:00,66.0,40.0,29.82,NE,45,2.0,4.0,38,0.00,,,0.00,,2013-05-29 22:03:00,
2013-05-29 16:12:00,66.0,40.0,29.82,NE,45,2.0,4.0,38,0.00,,,0.00,,2013-05-29 22:12:00,
2013-05-29 16:22:00,69.0,29.0,29.82,SW,225,4.0,7.0,22,0.00,,,0.00,,2013-05-29 22:22:00,
2013-05-29 16:33:00,69.0,26.0,29.80,WNW,292,13.0,22.0,20,0.00,,,0.00,,2013-05-29 22:33:00,
2013-05-29 16:42:00,70.0,29.0,29.81,WNW,292,12.0,17.0,22,0.00,,,0.00,,2013-05-29 22:42:00,
2013-05-29 16:52:00,70.0,29.0,29.81,WNW,292,12.0,17.0,22,0.00,,,0.00,,2013-05-29 22:52:00,
2013-05-29 17:02:00,68.0,25.0,29.81,West,270,10.0,18.0,20,0.00,,,0.00,,2013-05-29 23:02:00,
2013-05-29 17:12:00,68.0,25.0,29.81,West,270,10.0,18.0,20,0.00,,,0.00,,2013-05-29 23:12:00,
2013-05-29 17:21:00,69.0,29.0,29.81,West,270,11.0,16.0,22,0.00,,,0.00,,2013-05-29 23:21:00,
2013-05-29 17:33:00,68.0,25.0,29.81,NW,315,11.0,16.0,20,0.00,,,0.00,,2013-05-29 23:33:00,
2013-05-29 17:42:00,65.0,31.0,29.81,North,360,4.0,11.0,28,0.00,,,0.00,,2013-05-29 23:42:00,
2013-05-29 17:52:00,65.0,31.0,29.81,North,360,4.0,11.0,28,0.00,,,0.00,,2013-05-29 23:52:00,
2013-05-29 18:01:00,66.0,29.0,29.81,NW,315,6.0,12.0,25,0.00,,,0.00,,2013-05-30 00:01:00,
2013-05-29 18:11:00,66.0,29.0,29.81,NW,315,6.0,12.0,25,0.00,,,0.00,,2013-05-30 00:11:00,
2013-05-29 18:21:00,65.0,31.0,29.81,North,360,5.0,11.0,28,0.00,,,0.00,,2013-05-30 00:21:00,
2013-05-29 18:31:00,68.0,23.0,29.80,WNW,292,12.0,16.0,18,0.00,,,0.00,,2013-05-30 00:31:00,
2013-05-29 18:41:00,68.0,23.0,29.80,WNW,292,12.0,16.0,18,0.00,,,0.00,,2013-05-30 00:41:00,
2013-05-29 18:52:00,65.0,25.0,29.81,WNW,292,11.0,15.0,22,0.00,,,0.00,,2013-05-30 00:52:00,
2013-05-29 19:01:00,64.0,24.0,29.80,NW,315,11.0,16.0,22,0.00,,,0.00,,2013-05-30 01:01:00,
2013-05-29 19:11:00,64.0,23.0,29.81,NW,315,6.0,11.0,21,0.00,,,0.00,,2013-05-30 01:11:00,
2013-05-29 19:21:00,64.0,23.0,29.81,NW,315,6.0,11.0,21,0.00,,,0.00,,2013-05-30 01:21:00,
2013-05-29 19:31:00,65.0,24.0,29.82,WNW,292,8.0,13.0,21,0.00,,,0.00,,2013-05-30 01:31:00,
2013-05-29 19:41:00,65.0,24.0,29.82,WNW,292,8.0,13.0,21,0.00,,,0.00,,2013-05-30 01:41:00,
2013-05-29 19:52:00,63.0,24.0,29.82,NW,315,8.0,11.0,22,0.00,,,0.00,,2013-05-30 01:52:00,
2013-05-29 20:01:00,64.0,24.0,29.82,West,270,10.0,17.0,22,0.00,,,0.00,,2013-05-30 02:01:00,
2013-05-29 20:11:00,64.0,24.0,29.82,West,270,10.0,17.0,22,0.00,,,0.00,,2013-05-30 02:11:00,
2013-05-29 20:21:00,63.0,24.0,29.82,West,270,5.0,7.0,22,0.00,,,0.00,,2013-05-30 02:21:00,
2013-05-29 20:31:00,62.0,23.0,29.82,WSW,247,6.0,11.0,22,0.00,,,0.00,,2013-05-30 02:31:00,
2013-05-29 20:42:00,62.0,23.0,29.82,WSW,247,6.0,11.0,22,0.00,,,0.00,,2013-05-30 02:42:00,
2013-05-29 20:52:00,62.0,23.0,29.82,WSW,247,6.0,11.0,22,0.00,,,0.00,,2013-05-30 02:52:00,
2013-05-29 21:01:00,59.0,24.0,29.81,WSW,247,4.0,12.0,26,0.00,,,0.00,,2013-05-30 03:01:00,
2013-05-29 21:11:00,58.0,24.0,29.81,SW,225,5.0,7.0,27,0.00,,,0.00,,2013-05-30 03:11:00,
2013-05-29 21:21:00,58.0,24.0,29.81,SW,225,5.0,7.0,27,0.00,,,0.00,,2013-05-30 03:21:00,
2013-05-29 21:32:00,57.0,24.0,29.80,SW,225,6.0,9.0,28,0.00,,,0.00,,2013-05-30 03:32:00,
2013-05-29 21:43:00,57.0,24.0,29.80,SW,225,6.0,9.0,28,0.00,,,0.00,,2013-05-30 03:43:00,
2013-05-29 21:53:00,56.0,24.0,29.81,SW,225,2.0,3.0,29,0.00,,,0.00,,2013-05-30 03:53:00,
2013-05-29 22:02:00,56.0,25.0,29.81,SW,225,5.0,7.0,30,0.00,,,0.00,,2013-05-30 04:02:00,
2013-05-29 22:12:00,56.0,25.0,29.81,SW,225,5.0,7.0,30,0.00,,,0.00,,2013-05-30 04:12:00,
2013-05-29 22:22:00,56.0,26.0,29.81,SW,225,6.0,9.0,31,0.00,,,0.00,,2013-05-30 04:22:00,
2013-05-29 22:32:00,55.0,26.0,29.82,SW,225,6.0,7.0,33,0.00,,,0.00,,2013-05-30 04:32:00,
2013-05-29 22:42:00,55.0,26.0,29.82,SW,225,6.0,7.0,33,0.00,,,0.00,,2013-05-30 04:42:00,
2013-05-29 22:52:00,54.0,26.0,29.82,SW,225,5.0,6.0,33,0.00,,,0.00,,2013-05-30 04:52:00,
2013-05-29 23:02:00,54.0,26.0,29.82,SW,225,5.0,7.0,34,0.00,,,0.00,,2013-05-30 05:02:00,
2013-05-29 23:12:00,54.0,26.0,29.82,SW,225,5.0,7.0,34,0.00,,,0.00,,2013-05-30 05:12:00,
2013-05-29 23:21:00,54.0,27.0,29.82,SW,225,2.0,3.0,35,0.00,,,0.00,,2013-05-30 05:21:00,
2013-05-29 23:32:00,53.0,26.0,29.82,West,270,2.0,2.0,35,0.00,,,0.00,,2013-05-30 05:32:00,
2013-05-29 23:42:00,53.0,26.0,29.82,West,270,2.0,2.0,35,0.00,,,0.00,,2013-05-30 05:42:00,
2013-05-29 23:52:00,54.0,25.0,29.82,SW,225,6.0,13.0,32,0.00,,,0.00,,2013-05-30 05:52:00,